Location: Sagn�
(15.2046°N, 12.7898°W)
Time: 13:55:17
(UTC+00:00)

Cosmos 921 Rocket - Pass Details

Date: 08 May 2021
Orbit: 572 x 631 km, 75.8° (Epoch: 14 June)

Event Time Altitude Azimuth Distance (km) Brightness Sun altitude
Rises 21:07:15 0° 344° (NNW) 2,789 7.0 -26.7°
Reaches altitude 10° 21:09:29 10° 341° (NNW) 1,883 6.1 -27.1°
Enters shadow 21:12:31 45° 320° (NW) 791 3.9 -27.8°
